Time,TemperatureF,DewpointF,PressureIn,WindDirection,WindDirectionDegrees,WindSpeedMPH,WindSpeedGustMPH,Humidity,HourlyPrecipIn,Conditions,Clouds,dailyrainin,SoftwareType,DateUTC
2013-01-19 00:02:00,35.0,32.0,29.85,South,188,1.0,4.0,87,0.00,,,0.00,,2013-01-19 06:02:00,
2013-01-19 00:12:00,35.0,32.0,29.85,South,188,1.0,4.0,87,0.00,,,0.00,,2013-01-19 06:12:00,
2013-01-19 00:22:00,35.0,32.0,29.84,SSW,196,1.0,4.0,87,0.00,,,0.00,,2013-01-19 06:22:00,
2013-01-19 00:32:00,36.0,32.0,29.84,SSW,209,0.0,3.0,86,0.00,,,0.00,,2013-01-19 06:32:00,
2013-01-19 00:43:00,36.0,32.0,29.84,SSW,209,0.0,3.0,86,0.00,,,0.00,,2013-01-19 06:43:00,
2013-01-19 00:53:00,36.0,32.0,29.84,SW,215,1.0,3.0,86,0.00,,,0.00,,2013-01-19 06:53:00,
2013-01-19 01:02:00,36.0,32.0,29.83,SSW,211,1.0,3.0,86,0.00,,,0.00,,2013-01-19 07:02:00,
2013-01-19 01:12:00,36.0,32.0,29.83,SSW,211,1.0,3.0,86,0.00,,,0.00,,2013-01-19 07:12:00,
2013-01-19 01:22:00,36.0,33.0,29.82,SSW,211,1.0,3.0,87,0.00,,,0.00,,2013-01-19 07:22:00,
2013-01-19 01:32:00,36.0,33.0,29.82,SSW,211,0.0,3.0,87,0.00,,,0.00,,2013-01-19 07:32:00,
2013-01-19 01:42:00,36.0,33.0,29.82,SSW,211,0.0,3.0,87,0.00,,,0.00,,2013-01-19 07:42:00,
2013-01-19 01:52:00,35.0,32.0,29.82,SSE,162,1.0,4.0,87,0.00,,,0.00,,2013-01-19 07:52:00,
2013-01-19 02:02:00,35.0,32.0,29.82,SSE,152,0.0,3.0,88,0.00,,,0.00,,2013-01-19 08:02:00,
2013-01-19 02:12:00,35.0,32.0,29.82,SSE,152,0.0,3.0,88,0.00,,,0.00,,2013-01-19 08:12:00,
2013-01-19 02:22:00,35.0,32.0,29.82,SSE,152,0.0,2.0,88,0.00,,,0.00,,2013-01-19 08:22:00,
2013-01-19 02:32:00,35.0,32.0,29.82,SSE,153,1.0,2.0,89,0.00,,,0.00,,2013-01-19 08:32:00,
2013-01-19 02:43:00,35.0,32.0,29.82,SSE,153,1.0,2.0,89,0.00,,,0.00,,2013-01-19 08:43:00,
2013-01-19 02:53:00,35.0,32.0,29.81,South,182,1.0,3.0,88,0.00,,,0.00,,2013-01-19 08:53:00,
2013-01-19 03:02:00,35.0,32.0,29.81,SSE,168,1.0,4.0,88,0.00,,,0.00,,2013-01-19 09:02:00,
2013-01-19 03:12:00,35.0,32.0,29.81,SSE,168,1.0,4.0,88,0.00,,,0.00,,2013-01-19 09:12:00,
2013-01-19 03:22:00,35.0,32.0,29.81,SSE,157,2.0,5.0,89,0.00,,,0.00,,2013-01-19 09:22:00,
2013-01-19 03:32:00,35.0,32.0,29.80,SSW,202,0.0,2.0,89,0.00,,,0.00,,2013-01-19 09:32:00,
2013-01-19 03:42:00,35.0,32.0,29.80,SSW,202,0.0,2.0,89,0.00,,,0.00,,2013-01-19 09:42:00,
2013-01-19 03:53:00,34.0,31.0,29.80,SSW,202,0.0,2.0,90,0.00,,,0.00,,2013-01-19 09:53:00,
2013-01-19 04:02:00,34.0,31.0,29.79,South,185,2.0,4.0,90,0.00,,,0.00,,2013-01-19 10:02:00,
2013-01-19 04:12:00,34.0,31.0,29.79,South,185,2.0,4.0,90,0.00,,,0.00,,2013-01-19 10:12:00,
2013-01-19 04:22:00,34.0,31.0,29.79,South,185,1.0,4.0,90,0.00,,,0.00,,2013-01-19 10:22:00,
2013-01-19 04:32:00,35.0,32.0,29.79,SSW,210,1.0,6.0,90,0.00,,,0.00,,2013-01-19 10:32:00,
2013-01-19 04:42:00,35.0,32.0,29.79,SSW,210,1.0,6.0,90,0.00,,,0.00,,2013-01-19 10:42:00,
2013-01-19 04:53:00,35.0,32.0,29.78,SSW,207,2.0,4.0,89,0.00,,,0.00,,2013-01-19 10:53:00,
2013-01-19 05:02:00,36.0,33.0,29.78,SSW,210,3.0,5.0,88,0.00,,,0.00,,2013-01-19 11:02:00,
2013-01-19 05:12:00,36.0,33.0,29.78,SSW,210,3.0,5.0,88,0.00,,,0.00,,2013-01-19 11:12:00,
2013-01-19 06:48:00,36.0,33.0,29.78,SSW,192,3.0,6.0,87,0.00,,,0.00,,2013-01-19 12:48:00,
2013-01-19 06:53:00,35.0,32.0,29.79,West,267,2.0,3.0,88,0.00,,,0.00,,2013-01-19 12:53:00,
2013-01-19 07:03:00,36.0,32.0,29.78,WSW,240,2.0,3.0,86,0.00,,,0.00,,2013-01-19 13:03:00,
2013-01-19 07:12:00,36.0,32.0,29.78,WSW,240,2.0,3.0,86,0.00,,,0.00,,2013-01-19 13:12:00,
2013-01-19 07:22:00,36.0,32.0,29.78,SW,224,1.0,4.0,86,0.00,,,0.00,,2013-01-19 13:22:00,
2013-01-19 07:33:00,36.0,32.0,29.78,SW,225,1.0,3.0,86,0.00,,,0.00,,2013-01-19 13:33:00,
2013-01-19 07:42:00,36.0,32.0,29.78,SW,225,1.0,3.0,86,0.00,,,0.00,,2013-01-19 13:42:00,
2013-01-19 07:53:00,36.0,32.0,29.79,WSW,238,0.0,4.0,85,0.00,,,0.00,,2013-01-19 13:53:00,
2013-01-19 08:02:00,36.0,32.0,29.79,SW,229,2.0,5.0,85,0.00,,,0.00,,2013-01-19 14:02:00,
2013-01-19 08:12:00,36.0,32.0,29.79,SW,229,2.0,5.0,85,0.00,,,0.00,,2013-01-19 14:12:00,
2013-01-19 08:23:00,36.0,32.0,29.80,SW,224,0.0,5.0,85,0.00,,,0.00,,2013-01-19 14:23:00,
2013-01-19 08:33:00,36.0,32.0,29.80,West,266,1.0,3.0,86,0.00,,,0.00,,2013-01-19 14:33:00,
2013-01-19 08:43:00,36.0,32.0,29.80,West,266,1.0,3.0,86,0.00,,,0.00,,2013-01-19 14:43:00,
2013-01-19 08:53:00,36.0,32.0,29.81,SW,236,2.0,4.0,86,0.00,,,0.00,,2013-01-19 14:53:00,
2013-01-19 09:03:00,36.0,32.0,29.82,WNW,294,2.0,5.0,85,0.00,,,0.00,,2013-01-19 15:03:00,
2013-01-19 09:12:00,36.0,32.0,29.82,WNW,294,2.0,5.0,85,0.00,,,0.00,,2013-01-19 15:12:00,
2013-01-19 09:23:00,37.0,32.0,29.83,West,277,3.0,7.0,83,0.00,,,0.00,,2013-01-19 15:23:00,
2013-01-19 09:33:00,38.0,33.0,29.83,NW,311,3.0,8.0,81,0.00,,,0.00,,2013-01-19 15:33:00,
2013-01-19 09:43:00,38.0,33.0,29.83,NW,311,3.0,8.0,81,0.00,,,0.00,,2013-01-19 15:43:00,
2013-01-19 09:53:00,38.0,32.0,29.85,WSW,240,3.0,8.0,80,0.00,,,0.00,,2013-01-19 15:53:00,
2013-01-19 10:03:00,38.0,32.0,29.85,West,281,4.0,7.0,80,0.00,,,0.00,,2013-01-19 16:03:00,
2013-01-19 10:13:00,38.0,32.0,29.85,West,281,4.0,7.0,80,0.00,,,0.00,,2013-01-19 16:13:00,
2013-01-19 10:23:00,38.0,33.0,29.85,WNW,283,3.0,7.0,81,0.00,,,0.00,,2013-01-19 16:23:00,
2013-01-19 10:33:00,39.0,33.0,29.86,West,275,4.0,11.0,80,0.00,,,0.00,,2013-01-19 16:33:00,
2013-01-19 10:43:00,39.0,33.0,29.86,West,275,4.0,11.0,80,0.00,,,0.00,,2013-01-19 16:43:00,
2013-01-19 10:54:00,39.0,33.0,29.86,West,274,3.0,7.0,80,0.00,,,0.00,,2013-01-19 16:54:00,
2013-01-19 11:02:00,40.0,34.0,29.87,West,281,5.0,10.0,79,0.00,,,0.00,,2013-01-19 17:02:00,
2013-01-19 11:18:00,40.0,34.0,29.87,West,281,5.0,10.0,79,0.00,,,0.00,,2013-01-19 17:18:00,
2013-01-19 11:28:00,41.0,35.0,29.87,WNW,293,5.0,10.0,79,0.00,,,0.00,,2013-01-19 17:28:00,
2013-01-19 11:35:00,41.0,34.0,29.87,WNW,284,7.0,12.0,76,0.00,,,0.00,,2013-01-19 17:35:00,
2013-01-19 11:47:00,41.0,34.0,29.87,WNW,284,7.0,12.0,76,0.00,,,0.00,,2013-01-19 17:47:00,
2013-01-19 11:54:00,42.0,35.0,29.86,NW,308,7.0,11.0,76,0.00,,,0.00,,2013-01-19 17:54:00,
2013-01-19 12:09:00,41.0,34.0,29.85,WNW,290,7.0,12.0,77,0.00,,,0.00,,2013-01-19 18:09:00,
2013-01-19 12:25:00,40.0,34.0,29.85,West,260,5.0,11.0,79,0.00,,,0.00,,2013-01-19 18:25:00,
2013-01-19 12:34:00,41.0,35.0,29.86,NW,306,8.0,12.0,80,0.00,,,0.00,,2013-01-19 18:34:00,
2013-01-19 12:45:00,41.0,35.0,29.86,NW,306,8.0,12.0,80,0.00,,,0.00,,2013-01-19 18:45:00,
2013-01-19 13:19:00,43.0,36.0,29.87,NW,311,10.0,16.0,75,0.00,,,0.00,,2013-01-19 19:19:00,
2013-01-19 13:38:00,42.0,36.0,29.89,WNW,283,10.0,18.0,78,0.00,,,0.00,,2013-01-19 19:38:00,
2013-01-19 13:45:00,42.0,36.0,29.89,WNW,283,10.0,18.0,78,0.00,,,0.00,,2013-01-19 19:45:00,
2013-01-19 13:57:00,42.0,35.0,29.89,WNW,302,9.0,17.0,77,0.00,,,0.00,,2013-01-19 19:57:00,
2013-01-19 14:09:00,42.0,34.0,29.90,West,276,12.0,18.0,74,0.00,,,0.00,,2013-01-19 20:09:00,
2013-01-19 14:18:00,42.0,34.0,29.90,West,276,12.0,18.0,74,0.00,,,0.00,,2013-01-19 20:18:00,
2013-01-19 14:25:00,42.0,34.0,29.90,NW,309,12.0,19.0,74,0.00,,,0.00,,2013-01-19 20:25:00,
2013-01-19 14:37:00,42.0,34.0,29.90,North,349,11.0,18.0,74,0.00,,,0.00,,2013-01-19 20:37:00,
2013-01-19 14:46:00,42.0,34.0,29.90,North,349,11.0,18.0,74,0.00,,,0.00,,2013-01-19 20:46:00,
2013-01-19 15:05:00,41.0,34.0,29.91,WNW,291,10.0,19.0,76,0.00,,,0.00,,2013-01-19 21:05:00,
2013-01-19 15:14:00,41.0,34.0,29.91,WNW,291,10.0,19.0,76,0.00,,,0.00,,2013-01-19 21:14:00,
2013-01-19 15:25:00,40.0,34.0,29.92,WNW,287,10.0,20.0,78,0.00,,,0.00,,2013-01-19 21:25:00,
2013-01-19 15:41:00,33.0,28.0,29.96,NNW,334,7.0,16.0,82,0.00,,,0.00,,2013-01-19 21:41:00,
2013-01-19 15:50:00,33.0,28.0,29.96,NNW,334,7.0,16.0,82,0.00,,,0.00,,2013-01-19 21:50:00,
2013-01-19 16:00:00,31.0,26.0,29.98,West,262,8.0,22.0,83,0.00,,,0.00,,2013-01-19 22:00:00,
2013-01-19 16:17:00,30.0,26.0,29.99,NNW,342,8.0,31.0,84,0.00,,,0.00,,2013-01-19 22:17:00,
2013-01-19 16:26:00,29.0,25.0,30.01,West,271,13.0,33.0,83,0.00,,,0.00,,2013-01-19 22:26:00,
2013-01-19 16:34:00,28.0,24.0,30.02,WNW,296,5.0,19.0,83,0.00,,,0.00,,2013-01-19 22:34:00,
2013-01-19 16:58:00,27.0,22.0,30.03,West,281,16.0,33.0,82,0.00,,,0.00,,2013-01-19 22:58:00,
2013-01-19 17:14:00,26.0,20.0,30.05,WNW,284,19.0,42.0,79,0.00,,,0.00,,2013-01-19 23:14:00,
2013-01-19 17:25:00,24.0,18.0,30.09,WNW,299,9.0,35.0,78,0.00,,,0.00,,2013-01-19 23:25:00,
2013-01-19 17:34:00,22.0,15.0,30.09,WNW,283,20.0,36.0,74,0.00,,,0.00,,2013-01-19 23:34:00,
2013-01-19 17:45:00,22.0,15.0,30.09,WNW,283,20.0,36.0,74,0.00,,,0.00,,2013-01-19 23:45:00,
2013-01-19 18:07:00,21.0,13.0,30.11,SSW,210,22.0,46.0,72,0.00,,,0.00,,2013-01-20 00:07:00,
2013-01-19 18:15:00,20.0,13.0,30.12,WNW,300,21.0,41.0,73,0.00,,,0.00,,2013-01-20 00:15:00,
2013-01-19 18:25:00,19.0,12.0,30.14,West,263,15.0,47.0,73,0.00,,,0.00,,2013-01-20 00:25:00,
2013-01-19 18:35:00,18.0,11.0,30.15,West,268,22.0,41.0,72,0.00,,,0.00,,2013-01-20 00:35:00,
2013-01-19 18:45:00,18.0,11.0,30.15,West,268,22.0,41.0,72,0.00,,,0.00,,2013-01-20 00:45:00,
2013-01-19 18:56:00,18.0,11.0,30.16,West,265,16.0,38.0,73,0.00,,,0.00,,2013-01-20 00:56:00,
2013-01-19 19:03:00,17.0,10.0,30.17,WNW,300,9.0,42.0,75,0.00,,,0.00,,2013-01-20 01:03:00,
2013-01-19 19:19:00,17.0,10.0,30.17,WNW,300,9.0,42.0,75,0.00,,,0.00,,2013-01-20 01:19:00,
2013-01-19 19:25:00,16.0,9.0,30.18,WNW,286,15.0,44.0,75,0.00,,,0.00,,2013-01-20 01:25:00,
2013-01-19 19:35:00,15.0,8.0,30.19,WNW,290,14.0,43.0,74,0.00,,,0.00,,2013-01-20 01:35:00,
2013-01-19 19:46:00,15.0,8.0,30.19,WNW,290,14.0,43.0,74,0.00,,,0.00,,2013-01-20 01:46:00,
2013-01-19 20:03:00,14.0,7.0,30.20,WSW,254,12.0,42.0,73,0.00,,,0.00,,2013-01-20 02:03:00,
2013-01-19 20:14:00,13.0,6.0,30.22,WNW,302,15.0,35.0,74,0.00,,,0.00,,2013-01-20 02:14:00,
2013-01-19 20:25:00,13.0,6.0,30.23,WNW,303,19.0,32.0,74,0.00,,,0.00,,2013-01-20 02:25:00,
2013-01-19 20:35:00,12.0,5.0,30.24,WNW,298,10.0,40.0,74,0.00,,,0.00,,2013-01-20 02:35:00,
2013-01-19 20:44:00,12.0,5.0,30.24,WNW,298,10.0,40.0,74,0.00,,,0.00,,2013-01-20 02:44:00,
2013-01-19 20:58:00,11.0,4.0,30.24,NW,306,13.0,31.0,73,0.00,,,0.00,,2013-01-20 02:58:00,
2013-01-19 21:14:00,11.0,4.0,30.25,WSW,257,13.0,38.0,73,0.00,,,0.00,,2013-01-20 03:14:00,
2013-01-19 21:24:00,10.0,4.0,30.25,West,277,10.0,32.0,76,0.00,,,0.00,,2013-01-20 03:24:00,
2013-01-19 21:37:00,10.0,4.0,30.26,WNW,299,7.0,28.0,77,0.00,,,0.00,,2013-01-20 03:37:00,
2013-01-19 21:45:00,10.0,4.0,30.26,WNW,299,7.0,28.0,77,0.00,,,0.00,,2013-01-20 03:45:00,
2013-01-19 21:57:00,10.0,5.0,30.27,WNW,293,10.0,29.0,78,0.00,,,0.00,,2013-01-20 03:57:00,
2013-01-19 22:15:00,9.0,4.0,30.28,WNW,298,9.0,24.0,78,0.00,,,0.00,,2013-01-20 04:15:00,
2013-01-19 22:25:00,9.0,4.0,30.28,NW,325,8.0,24.0,80,0.00,,,0.00,,2013-01-20 04:25:00,
2013-01-19 22:35:00,9.0,4.0,30.29,WSW,254,10.0,19.0,79,0.00,,,0.00,,2013-01-20 04:35:00,
2013-01-19 22:44:00,9.0,4.0,30.29,WSW,254,10.0,19.0,79,0.00,,,0.00,,2013-01-20 04:44:00,
2013-01-19 22:57:00,8.0,2.0,30.29,WNW,300,4.0,13.0,77,0.00,,,0.00,,2013-01-20 04:57:00,
2013-01-19 23:03:00,8.0,2.0,30.29,NNW,327,4.0,27.0,76,0.00,,,0.00,,2013-01-20 05:03:00,
2013-01-19 23:12:00,8.0,2.0,30.29,NNW,327,4.0,27.0,76,0.00,,,0.00,,2013-01-20 05:12:00,
2013-01-19 23:22:00,8.0,2.0,30.29,NW,306,4.0,27.0,76,0.00,,,0.00,,2013-01-20 05:22:00,
2013-01-19 23:32:00,7.0,1.0,30.30,WNW,284,7.0,17.0,77,0.00,,,0.00,,2013-01-20 05:32:00,
2013-01-19 23:42:00,7.0,1.0,30.30,WNW,284,7.0,17.0,77,0.00,,,0.00,,2013-01-20 05:42:00,
2013-01-19 23:53:00,7.0,2.0,30.31,NW,313,8.0,27.0,78,0.00,,,0.00,,2013-01-20 05:53:00,